Regional Weather Roundup
Issued by NWS

Home | Current Version | Previous Version | Graphics & Text | Print | Product List | Glossary On
Versions: 1 2 3 4 5 6 7 8 9 10 11 12 13 14 15 16 17 18 19 20 21 22 23 24 25 26 27 28 29 30 31 32 33 34 35 36 37 38 39 40 41 42 43 44 45 46 47 48 49 50
715
ASUS45 KCYS 271410
RWRWY

WYOMING REGIONAL WEATHER ROUNDUP
NATIONAL WEATHER SERVICE CHEYENNE WY
700 AM MST MON FEB 27 2017

NOTE:  "FAIR" INDICATES FEW OR NO CLOUDS BELOW 12,000 FEET
WITH NO SIGNIFICANT WEATHER AND/OR OBSTRUCTIONS TO VISIBILITY.

WYZ001-271500-
YELLOWSTONE NATIONAL PARK

CITY           SKY/WX    TMP DP  RH WIND       PRES   REMARKS
LK YELLOWSTONE   N/A     -2  -3  96 CALM      29.50S
W YELLOWSTONE  NOT AVBL

$$
WYZ002>013-054>058-071-098>099-271500-
NORTHERN WYOMING

CITY           SKY/WX    TMP DP  RH WIND       PRES   REMARKS
JACKSON        FAIR      16  12  86 S9        29.54S WCI   4
CODY           FAIR      22  12  65 NE3       29.53F
GREYBULL       FAIR      20  14  77 NW5       29.57S WCI  13
WORLAND        FAIR      21  15  78 SE5       29.56S WCI  15
SHERIDAN       MOCLDY    19  11  70 VRB6      29.56R WCI  11
BUFFALO        MOCLDY    28   6  39 W22       29.51F WCI  14
GILLETTE       MOCLDY    25  11  55 SW14      29.54F WCI  13
HULETT         FAIR      23  10  58 S6        29.58F WCI  16
NEWCASTLE      FAIR      18   9  68 E8        29.62F WCI   7

$$
WYZ014>020-022>026-101>103-271500-
CENTRAL WYOMING

CITY           SKY/WX    TMP DP  RH WIND       PRES   REMARKS
BIG PINEY      CLOUDY    11   8  88 N6        29.56S WCI   1
PINEDALE       CLOUDY    12  10  92 W6        29.56S FOG     WCI   3
DUBOIS         CLOUDY    14   9  79 N5        29.49S WCI   6
LANDER         CLOUDY    14  11  87 W9        29.56R WCI   2
RIVERTON       CLOUDY    13   8  81 W6        29.56S WCI   4
CASPER         CLOUDY    21  14  74 NW13      29.54R WCI   9
DOUGLAS        FAIR      15  10  80 E3        29.58F

$$
WYZ021-027>030-104>119-271500-
SOUTHERN WYOMING

CITY           SKY/WX    TMP DP  RH WIND       PRES   REMARKS
EVANSTON       LGT SNOW  20  16  84 N7        29.54S VSB 1   WCI  11
FORT BRIDGER   LGT SNOW  15  15 100 NW7       29.56S WCI   5
ROCK SPRINGS   CLOUDY    24  14  65 SW15      29.53S WCI  11
DIXON            N/A     31  19  62 S17G28    29.61S WCI  19
RAWLINS        FAIR      27  17  66 SW22G35   29.53F WCI  13
SARATOGA       CLOUDY    28  19  69 S8        29.57S WCI  20
LARAMIE        FAIR      18  10  71 S9        29.56F WCI   7
CHEYENNE       FAIR      11   3  70 SW9       29.62F WCI  -2
TORRINGTON     FAIR       9   3  77 E9        29.66F WCI  -4
PINE BLUFFS    FAIR      10   5  79 SW14      29.66F WCI  -5

$$




USA.gov is the U.S. government's official web portal to all federal, state and local government web resources and services.